Location: Champignolles
(47.0543°N, 4.5663°E)
Time: 22:50:20
(UTC+00:00)

N. Korean satellite - Pass Details

Date: 10 December 2021
Orbit: 447 x 491 km, 97.3° (Epoch: 21 January)

Event Time Altitude Azimuth Distance (km) Brightness Sun altitude
Rises 05:05:05 0° 12° (NNE) 2,462 10.2 -21.4°
Reaches altitude 10° 05:07:07 10° 11° (NNE) 1,584 9.2 -21.1°
Enters shadow 05:08:19 20° 11° (N) 1,089 8.3 -20.9°
Exits shadow 05:10:54 68° 205° (SSW) 488 6.4 -20.5°
Drops below altitude 10° 05:13:53 10° 195° (SSW) 1,575 9.1 -20.0°
Sets 05:15:55 0° 195° (SSW) 2,446 10.1 -19.6°
